LNX4VR LFPB-EGLF

Flight info

Callsign LNX4VR
Flight time 0h 42m
Altitude 20000
Route OPALE DCT KESAX DCT KUNAV N20 ELDAX
Aircraft CL60/M-SADE3FGHIJ3J4J7P2RWXY/HB1D1

Departure

Time 2026-05-04 22:32
Airport Paris-Le Bourget International Airport (LFPB)

Arrival

Time 2026-05-04 23:14
Airport Farnborough Airport (EGLF)
Time Latitude Longitude Altitude Speed Heading
2026-05-04 22:02 48.96212 2.44555 164 ft 0 kts 206°
2026-05-04 22:25 48.96212 2.44554 164 ft 0 kts 206°
2026-05-04 22:25 48.96199 2.44503 163 ft 7 kts 293°
2026-05-04 22:25 48.96222 2.44431 162 ft 7 kts 317°
2026-05-04 22:26 48.96263 2.44349 161 ft 13 kts 266°
2026-05-04 22:26 48.96241 2.44194 155 ft 18 kts 256°
2026-05-04 22:26 48.96216 2.44031 151 ft 13 kts 248°
2026-05-04 22:26 48.96120 2.43938 147 ft 19 kts 204°
2026-05-04 22:27 48.95991 2.43848 143 ft 15 kts 204°
2026-05-04 22:27 48.95879 2.43768 138 ft 20 kts 204°
2026-05-04 22:27 48.95800 2.43695 133 ft 12 kts 243°
2026-05-04 22:27 48.95829 2.43547 133 ft 16 kts 294°
2026-05-04 22:28 48.95882 2.43374 134 ft 19 kts 295°
2026-05-04 22:28 48.95942 2.43183 137 ft 20 kts 295°
2026-05-04 22:28 48.96026 2.42997 140 ft 21 kts 309°
2026-05-04 22:28 48.96122 2.42815 144 ft 21 kts 309°
2026-05-04 22:29 48.96201 2.42663 147 ft 18 kts 308°
2026-05-04 22:29 48.96262 2.42530 148 ft 12 kts 285°
2026-05-04 22:29 48.96265 2.42379 146 ft 14 kts 268°
2026-05-04 22:29 48.96263 2.42318 144 ft 5 kts 268°
2026-05-04 22:30 48.96262 2.42251 143 ft 10 kts 268°
2026-05-04 22:30 48.96265 2.42130 141 ft 12 kts 284°
2026-05-04 22:30 48.96328 2.42058 140 ft 7 kts 356°
2026-05-04 22:30 48.96371 2.42100 142 ft 8 kts 73°
2026-05-04 22:31 48.96375 2.42152 143 ft 6 kts 59°
2026-05-04 22:31 48.96423 2.42161 144 ft 7 kts 64°
2026-05-04 22:31 48.96474 2.42354 149 ft 58 kts 67°
2026-05-04 22:31 48.96761 2.43425 184 ft 152 kts 69°
2026-05-04 22:32 48.97186 2.45063 867 ft 177 kts 65°
2026-05-04 22:32 48.97493 2.46875 1799 ft 188 kts 87°
2026-05-04 22:32 48.97369 2.48859 2618 ft 196 kts 96°
2026-05-04 22:32 48.97178 2.50946 2928 ft 212 kts 96°
2026-05-04 22:33 48.96957 2.53380 2951 ft 245 kts 96°
2026-05-04 22:33 48.96722 2.55996 2997 ft 247 kts 96°
2026-05-04 22:33 48.96504 2.58576 3627 ft 245 kts 95°
2026-05-04 22:33 48.96320 2.61164 4605 ft 248 kts 95°
2026-05-04 22:34 48.96137 2.63766 5701 ft 256 kts 95°
2026-05-04 22:34 48.95947 2.66466 6799 ft 261 kts 95°
2026-05-04 22:34 48.95756 2.69194 7899 ft 264 kts 96°
2026-05-04 22:34 48.95563 2.71935 8993 ft 268 kts 96°
2026-05-04 22:35 48.95364 2.74764 10121 ft 273 kts 96°
2026-05-04 22:35 48.95166 2.77591 11212 ft 279 kts 96°
2026-05-04 22:35 48.94952 2.80525 12321 ft 286 kts 97°
2026-05-04 22:35 48.94727 2.83536 13404 ft 296 kts 97°
2026-05-04 22:36 48.94492 2.86672 14501 ft 309 kts 97°
2026-05-04 22:36 48.94246 2.89947 15594 ft 320 kts 97°
2026-05-04 22:36 48.94085 2.93336 16708 ft 329 kts 87°
2026-05-04 22:36 48.94700 2.96686 17722 ft 340 kts 63°
2026-05-04 22:37 48.96172 2.99529 18683 ft 350 kts 40°
2026-05-04 22:37 48.98309 3.01296 19443 ft 363 kts 16°
2026-05-04 22:37 49.00879 3.01624 19829 ft 385 kts 352°
2026-05-04 22:37 49.03494 3.00381 19973 ft 410 kts 332°
2026-05-04 22:38 49.06125 2.98319 20197 ft 431 kts 333°
2026-05-04 22:38 49.08829 2.96304 20330 ft 436 kts 332°
2026-05-04 22:38 49.11568 2.94192 20144 ft 444 kts 334°
2026-05-04 22:38 49.14340 2.92302 19802 ft 434 kts 335°
2026-05-04 22:39 49.17062 2.90401 20012 ft 429 kts 333°
2026-05-04 22:39 49.19543 2.87921 19883 ft 434 kts 319°
2026-05-04 22:39 49.21736 2.84787 19887 ft 432 kts 314°
2026-05-04 22:39 49.23812 2.81432 19878 ft 428 kts 311°
2026-05-04 22:40 49.25813 2.78073 20037 ft 429 kts 311°
2026-05-04 22:40 49.27856 2.74753 19971 ft 434 kts 314°
2026-05-04 22:40 49.30053 2.71591 19928 ft 433 kts 317°
2026-05-04 22:40 49.32294 2.68525 19921 ft 431 kts 317°
2026-05-04 22:41 49.34512 2.65485 19917 ft 431 kts 317°
2026-05-04 22:41 49.36739 2.62430 19914 ft 431 kts 317°
2026-05-04 22:41 49.38973 2.59362 19916 ft 432 kts 317°
2026-05-04 22:41 49.41228 2.56264 19917 ft 432 kts 317°
2026-05-04 22:42 49.43461 2.53192 19923 ft 432 kts 317°
2026-05-04 22:42 49.45677 2.50140 19923 ft 432 kts 317°
2026-05-04 22:42 49.47921 2.47048 19925 ft 432 kts 318°
2026-05-04 22:42 49.50146 2.43977 19924 ft 433 kts 318°
2026-05-04 22:43 49.52379 2.40892 19930 ft 433 kts 318°
2026-05-04 22:43 49.54615 2.37800 19928 ft 433 kts 318°
2026-05-04 22:43 49.56869 2.34681 19928 ft 433 kts 317°
2026-05-04 22:43 49.59111 2.31574 19932 ft 433 kts 317°
2026-05-04 22:44 49.61342 2.28478 19932 ft 433 kts 317°
2026-05-04 22:44 49.63594 2.25349 19936 ft 434 kts 317°
2026-05-04 22:44 49.65809 2.22269 19935 ft 434 kts 317°
2026-05-04 22:44 49.68073 2.19116 19934 ft 434 kts 317°
2026-05-04 22:45 49.70323 2.15979 19935 ft 434 kts 317°
2026-05-04 22:45 49.74784 2.09746 19935 ft 434 kts 317°
2026-05-04 22:45 49.77032 2.06601 19942 ft 434 kts 317°
2026-05-04 22:46 49.79248 2.03495 19938 ft 434 kts 318°
2026-05-04 22:46 49.81491 2.00349 19944 ft 434 kts 318°
2026-05-04 22:46 49.83725 1.97210 19939 ft 434 kts 318°
2026-05-04 22:46 49.85941 1.94094 19941 ft 433 kts 318°
2026-05-04 22:47 49.88160 1.90968 19944 ft 433 kts 318°
2026-05-04 22:47 49.90452 1.87865 19949 ft 433 kts 321°
2026-05-04 22:47 49.92790 1.84980 19950 ft 434 kts 322°
2026-05-04 22:47 49.95147 1.82077 19948 ft 433 kts 322°
2026-05-04 22:48 49.97505 1.79168 19949 ft 433 kts 322°
2026-05-04 22:48 49.99887 1.76225 19948 ft 434 kts 322°
2026-05-04 22:48 50.02247 1.73308 19947 ft 433 kts 322°
2026-05-04 22:48 50.04584 1.70413 19955 ft 433 kts 322°
2026-05-04 22:49 50.06711 1.67111 19967 ft 433 kts 307°
2026-05-04 22:49 50.08382 1.63212 19941 ft 434 kts 303°
2026-05-04 22:49 50.10035 1.59267 19955 ft 434 kts 303°
2026-05-04 22:49 50.11678 1.55356 19961 ft 434 kts 303°
2026-05-04 22:50 50.13359 1.51353 19962 ft 434 kts 303°
2026-05-04 22:50 50.15003 1.47434 19960 ft 434 kts 303°
2026-05-04 22:50 50.16663 1.43476 19964 ft 434 kts 303°
2026-05-04 22:50 50.18301 1.39565 19966 ft 434 kts 303°
2026-05-04 22:51 50.19947 1.35631 19972 ft 434 kts 303°
2026-05-04 22:51 50.21593 1.31692 19974 ft 434 kts 303°
2026-05-04 22:51 50.23251 1.27721 19973 ft 434 kts 303°
2026-05-04 22:51 50.24921 1.23716 19974 ft 434 kts 303°
2026-05-04 22:52 50.26557 1.19788 19978 ft 434 kts 303°
2026-05-04 22:52 50.28207 1.15822 19974 ft 434 kts 303°
2026-05-04 22:52 50.29844 1.11880 19975 ft 434 kts 303°
2026-05-04 22:52 50.31475 1.07948 19973 ft 433 kts 303°
2026-05-04 22:53 50.33113 1.03995 19975 ft 433 kts 303°
2026-05-04 22:53 50.34763 1.00007 19976 ft 434 kts 303°
2026-05-04 22:53 50.36400 0.96044 19977 ft 434 kts 303°
2026-05-04 22:53 50.38029 0.92096 19977 ft 434 kts 303°
2026-05-04 22:54 50.39650 0.88161 19942 ft 435 kts 303°
2026-05-04 22:54 50.41304 0.84140 19652 ft 436 kts 303°
2026-05-04 22:54 50.42936 0.80169 19329 ft 432 kts 303°
2026-05-04 22:54 50.44553 0.76228 19006 ft 430 kts 303°
2026-05-04 22:55 50.46158 0.72310 18682 ft 427 kts 303°
2026-05-04 22:55 50.47740 0.68405 18360 ft 426 kts 301°
2026-05-04 22:55 50.48908 0.64205 18064 ft 424 kts 286°
2026-05-04 22:55 50.49433 0.59650 17967 ft 423 kts 278°
2026-05-04 22:56 50.49850 0.55149 17978 ft 422 kts 278°
2026-05-04 22:56 50.50278 0.50581 17978 ft 423 kts 278°
2026-05-04 22:56 50.50708 0.45984 17979 ft 425 kts 278°
2026-05-04 22:56 50.51135 0.41396 17978 ft 425 kts 278°
2026-05-04 22:57 50.51555 0.36866 17978 ft 426 kts 278°
2026-05-04 22:57 50.51984 0.32237 17980 ft 425 kts 277°
2026-05-04 22:57 50.52411 0.27592 17980 ft 425 kts 277°
2026-05-04 22:57 50.52834 0.22987 17980 ft 425 kts 277°
2026-05-04 22:58 50.53249 0.18442 17982 ft 425 kts 277°
2026-05-04 22:58 50.53673 0.13785 17983 ft 425 kts 277°
2026-05-04 22:58 50.54088 0.09209 17984 ft 425 kts 277°
2026-05-04 22:58 50.54501 0.04628 17980 ft 426 kts 277°
2026-05-04 22:59 50.54915 0.00028 17981 ft 426 kts 277°
2026-05-04 22:59 50.55327 -0.04585 17978 ft 426 kts 277°
2026-05-04 22:59 50.55735 -0.09168 17982 ft 426 kts 277°
2026-05-04 22:59 50.56141 -0.13749 17986 ft 426 kts 277°
2026-05-04 23:00 50.56547 -0.18345 17989 ft 426 kts 277°
2026-05-04 23:00 50.56954 -0.22981 17994 ft 426 kts 277°
2026-05-04 23:00 50.57341 -0.27409 17998 ft 426 kts 277°
2026-05-04 23:00 50.57744 -0.32032 17988 ft 418 kts 277°
2026-05-04 23:01 50.58134 -0.36443 17642 ft 400 kts 279°
2026-05-04 23:01 50.58880 -0.40551 17179 ft 387 kts 294°
2026-05-04 23:01 50.60230 -0.44107 16694 ft 375 kts 309°
2026-05-04 23:01 50.61977 -0.47071 16197 ft 366 kts 316°
2026-05-04 23:02 50.63744 -0.49856 15707 ft 358 kts 316°
2026-05-04 23:02 50.65476 -0.52600 15207 ft 351 kts 316°
2026-05-04 23:02 50.67188 -0.55316 14711 ft 345 kts 316°
2026-05-04 23:02 50.68918 -0.57850 14223 ft 338 kts 326°
2026-05-04 23:03 50.70921 -0.59673 13788 ft 330 kts 334°
2026-05-04 23:03 50.72900 -0.61339 13393 ft 323 kts 333°
2026-05-04 23:03 50.74855 -0.62999 12999 ft 317 kts 333°
2026-05-04 23:03 50.76782 -0.64636 12603 ft 311 kts 333°
2026-05-04 23:04 50.78698 -0.66265 12197 ft 306 kts 333°
2026-05-04 23:04 50.80557 -0.67846 11798 ft 302 kts 332°
2026-05-04 23:04 50.82379 -0.69398 11412 ft 298 kts 332°
2026-05-04 23:04 50.84204 -0.70953 11009 ft 294 kts 332°
2026-05-04 23:05 50.86000 -0.72476 10589 ft 291 kts 334°
2026-05-04 23:05 50.87875 -0.73589 10153 ft 288 kts 344°
2026-05-04 23:05 50.89797 -0.74496 9713 ft 286 kts 343°
2026-05-04 23:05 50.91691 -0.75400 9288 ft 283 kts 344°
2026-05-04 23:06 50.93547 -0.76288 8865 ft 280 kts 343°
2026-05-04 23:06 50.95425 -0.77187 8437 ft 277 kts 343°
2026-05-04 23:06 50.97259 -0.78067 8000 ft 274 kts 343°
2026-05-04 23:06 50.99059 -0.78933 7475 ft 271 kts 343°
2026-05-04 23:07 51.00819 -0.79939 6916 ft 269 kts 331°
2026-05-04 23:07 51.02372 -0.81562 6339 ft 267 kts 325°
2026-05-04 23:07 51.03879 -0.83284 5760 ft 265 kts 324°
2026-05-04 23:07 51.05341 -0.84980 5220 ft 262 kts 324°
2026-05-04 23:08 51.06809 -0.86696 5012 ft 261 kts 324°
2026-05-04 23:08 51.08264 -0.88399 4970 ft 261 kts 324°
2026-05-04 23:08 51.09740 -0.90049 4762 ft 260 kts 332°
2026-05-04 23:08 51.11455 -0.90929 4314 ft 251 kts 349°
2026-05-04 23:09 51.13122 -0.91421 4034 ft 237 kts 351°
2026-05-04 23:09 51.14699 -0.91871 3762 ft 228 kts 351°
2026-05-04 23:09 51.16270 -0.92325 3207 ft 228 kts 351°
2026-05-04 23:09 51.17781 -0.92770 3015 ft 214 kts 351°
2026-05-04 23:10 51.19172 -0.93048 3041 ft 187 kts
2026-05-04 23:10 51.20442 -0.92725 2773 ft 184 kts
2026-05-04 23:10 51.21675 -0.92960 2558 ft 175 kts
2026-05-04 23:10 51.22747 -0.92246 2389 ft 170 kts 45°
2026-05-04 23:11 51.23251 -0.90625 2249 ft 158 kts 76°
2026-05-04 23:11 51.23573 -0.89100 2141 ft 140 kts 64°
2026-05-04 23:11 51.23992 -0.87782 1917 ft 128 kts 58°
2026-05-04 23:11 51.24430 -0.86588 1631 ft 126 kts 58°
2026-05-04 23:12 51.24871 -0.85398 1404 ft 123 kts 57°
2026-05-04 23:12 51.25304 -0.84205 1201 ft 126 kts 57°
2026-05-04 23:12 51.25750 -0.83002 997 ft 125 kts 57°
2026-05-04 23:12 51.26171 -0.81825 804 ft 119 kts 58°
2026-05-04 23:13 51.26569 -0.80644 610 ft 122 kts 59°
2026-05-04 23:13 51.26972 -0.79448 402 ft 125 kts 59°
2026-05-04 23:13 51.27377 -0.78238 255 ft 116 kts 60°
2026-05-04 23:13 51.27687 -0.77269 241 ft 62 kts 61°
2026-05-04 23:14 51.27803 -0.77022 241 ft 14 kts 31°
2026-05-04 23:14 51.27862 -0.76961 241 ft 6 kts 33°
2026-05-04 23:14 51.27887 -0.76935 241 ft 8 kts 33°
2026-05-04 23:14 51.27951 -0.76866 241 ft 13 kts 33°
2026-05-04 23:15 51.27994 -0.76821 241 ft 0 kts 34°
2026-05-04 23:15 51.28007 -0.76807 241 ft 4 kts 27°
2026-05-04 23:15 51.28058 -0.76819 241 ft 11 kts 307°
2026-05-04 23:16 51.28085 -0.76927 241 ft 12 kts 287°
2026-05-04 23:16 51.28110 -0.77053 241 ft 8 kts 287°
2026-05-04 23:16 51.28115 -0.77164 241 ft 12 kts 250°
2026-05-04 23:16 51.28068 -0.77243 241 ft 10 kts 184°
2026-05-04 23:17 51.28023 -0.77279 241 ft 4 kts 270°
2026-05-04 23:17 51.28030 -0.77292 241 ft 0 kts 334°